[[{"header":{"parameterUnit":"m.s-1","parameterCategory":1,"la1":30.2991,"la2":30.254,"lo1":-89.0895,"lo2":-89.0444,"dy":0.0017,"dx":0.0017,"nx":28,"ny":28,"refTime":"2023-08-04T21:00:00:Z","depth":0,"parameterNumber":2,"parameterNumberName":"U-component_of_WINDS"},"data":[0,0,0,0,0,0,0,0,0,0,0,0,0,0,0,0,0,0,0,0,0,0,0,0,0,0,0,0,0,0,0,0,0,0,0,0,0,0,0,0,0,0,0,0,0,0,0,0,0,0,0,0,0,0,0,0,0,0,4.8434,4.8435,0,4.858,4.8582,4.8583,4.8529,4.8526,4.8522,4.8519,4.8671,4.8678,4.8685,0,0,0,0,0,0,0,0,0,0,0,0,0,4.8108,4.8114,4.8434,4.8435,4.8437,4.858,4.8582,4.8584,4.853,4.8526,4.8521,4.8518,4.8669,4.8677,4.8686,0,0,0,0,0,0,0,0,0,0,0,0,0,4.8251,4.8116,4.8433,4.8427,4.8428,4.8579,4.8582,4.8584,4.853,4.8525,4.852,4.8516,4.8666,4.8676,4.8687,4.8853,0,0,4.8719,4.8724,0,0,0,0,0,0,0,0,4.8243,4.8263,4.8426,4.8428,4.8429,4.8531,4.8522,4.8674,4.8532,4.8492,4.8519,4.8513,4.8629,4.8642,4.868,4.886,4.8867,4.872,4.8727,4.8732,4.8735,0,0,0,0,0,0,0,4.8233,4.8257,4.8491,4.8429,4.8431,4.8418,4.8432,4.8551,4.8586,4.8495,4.8491,4.8509,4.8628,4.867,4.8684,4.8869,4.872,4.873,4.8736,4.874,4.9191,4.9196,0,0,0,0,0,0,4.8223,4.8249,4.8487,4.8496,4.8322,4.8427,4.8444,4.8504,4.8585,4.8593,4.8513,4.8506,4.8654,4.8671,4.8689,4.8888,4.8731,4.8742,4.8748,4.9185,4.9192,4.9198,0,0,0,0,0,0,4.8216,4.8244,4.8481,4.8371,4.8401,4.8438,4.8506,4.8509,4.8551,4.8599,4.8605,4.855,4.8651,4.8674,4.8812,4.8892,4.8746,4.8756,4.9179,4.9187,4.9195,4.9287,0,0,0,0,0,0,4.8207,4.8242,4.8306,4.8373,4.8407,4.8602,4.8511,4.8515,4.8569,4.8561,4.8635,4.8642,4.8649,4.8796,4.8823,4.8904,4.8764,4.9172,4.9182,4.9192,4.9277,4.9298,4.9315,0,0,0,0,0,4.8195,4.8327,4.8309,4.8338,4.8487,4.8607,4.8626,4.8631,4.8576,4.864,4.8671,4.864,4.8879,4.8811,4.884,4.8926,4.9166,4.9179,4.9191,4.9269,4.9294,4.9315,0,0,0,0,0,0,4.8269,4.8335,4.8317,4.8474,4.8535,4.8597,4.8678,4.8657,4.8735,4.8725,4.8728,4.8745,4.8887,4.8921,4.8843,4.9091,4.9015,4.9034,4.9063,4.9088,4.9106,4.9095,4.8773,0,0,0,0,0,4.8303,4.8394,4.8448,4.8581,4.8613,4.864,4.8693,4.8691,4.8755,4.878,4.8821,4.8884,4.8974,4.9033,4.9118,4.9282,4.9296,4.9355,4.9374,4.939,4.9406,4.9494,4.952,4.9239,4.9238,4.9238,0,0,4.8375,4.8423,4.8481,4.8597,4.8644,4.8739,4.8663,4.8766,4.8836,4.8796,4.8929,4.8961,4.9032,4.9184,4.9252,4.9216,4.9487,4.9405,4.9417,4.9425,4.9509,4.9536,4.956,4.9247,4.9245,4.9244,0,0,4.8554,4.86,4.8715,4.8764,4.8836,4.8853,4.8881,4.8946,4.8966,4.9099,4.907,4.9154,4.9308,4.9359,4.9405,4.9603,4.9577,4.9631,4.973,4.9815,4.9838,4.9857,4.9927,4.9952,4.9647,4.9647,4.9647,0,4.8635,4.8776,4.8778,4.8883,4.8935,4.8902,4.9019,4.9066,4.9163,4.9199,4.9157,4.9348,4.9394,4.9556,4.9604,4.9643,4.9674,4.9622,4.9834,4.9854,4.9872,4.9938,4.9965,4.9653,4.9652,4.9652,4.9651,0,4.8871,4.8969,4.9054,4.9146,4.9208,4.9319,4.9337,4.9399,4.9392,4.9414,4.9549,4.9602,4.9697,4.9736,4.973,4.9897,4.9872,4.9832,4.9756,4.9905,4.9967,4.9993,4.9661,4.9659,4.9657,4.9656,0,0,4.9101,4.9192,4.9223,4.9264,4.934,4.9416,4.9525,4.9617,4.9669,4.9737,4.9828,4.9959,4.9922,4.9974,4.9974,5.005,5.0201,5.0,5.0002,5.0035,5.0387,5.0416,5.0445,5.0185,5.0189,5.0193,5.0381,0,4.9286,4.9476,4.948,4.9655,4.9745,4.9715,4.981,4.9867,4.989,4.997,4.9996,5.0088,5.0032,5.0064,5.0137,5.0167,5.0272,5.0154,5.0269,5.0273,5.0251,5.0478,5.0509,5.0684,5.0405,5.0409,5.0412,0,4.9527,4.96,4.9783,4.9845,4.9883,4.9968,5.0052,5.0129,5.0193,5.0204,5.0262,5.0251,5.0362,5.0282,5.0435,5.0354,5.0402,5.0424,5.0431,5.0441,5.0351,5.0493,5.074,5.0765,5.0451,5.0448,5.0445,0,4.9674,4.982,4.9948,4.9984,5.006,5.012,5.0154,5.0213,5.0267,5.0341,5.0376,5.0461,5.0508,5.0575,5.0587,5.0528,5.074,5.0661,5.0752,5.0751,5.0797,5.0794,5.1053,5.083,5.0829,5.0829,5.0828,0,4.988,4.9993,5.0015,5.0094,5.0219,5.0223,5.0347,5.0377,5.0429,5.0513,5.0493,5.0572,5.0583,5.0665,5.0676,5.08,5.0821,5.0833,5.0835,5.0835,5.0833,5.0865,5.0853,5.0836,5.0834,5.0833,5.0832,0,5.0066,5.0086,5.0223,5.0283,5.03,5.039,5.0441,5.0517,5.0537,5.0643,5.0669,5.0701,5.0796,5.0815,5.0928,5.0934,5.1082,5.1072,5.106,5.1059,5.1148,5.1139,5.1436,5.1475,5.1227,5.1229,5.1231,0,5.0195,5.0281,5.035,5.0404,5.0441,5.0529,5.0584,5.0591,5.0649,5.0727,5.0793,5.0886,5.096,5.1114,5.1148,5.1234,5.1225,5.1323,5.1238,5.1235,5.1225,5.1219,5.1227,5.1339,5.1342,5.1344,5.1346,0,5.0422,5.0427,5.0507,5.059,5.0655,5.0721,5.0784,5.0829,5.0845,5.0911,5.1007,5.1065,5.118,5.1272,5.1357,5.1393,5.1373,5.1373,5.1398,5.1398,5.1388,5.1393,5.1104,5.1366,5.1364,5.1362,5.1361,5.136,5.0584,5.0658,5.0717,5.0806,5.0853,5.0912,5.0985,5.1014,5.1094,5.1187,5.1187,5.1292,5.1353,5.1465,5.1506,5.1589,5.1558,5.1595,5.1604,5.1613,5.162,5.1375,5.1605,5.1604,5.1604,5.1603,5.1603,0,5.0808,5.0845,5.0926,5.1013,5.1083,5.1057,5.1124,5.1184,5.1277,5.1335,5.1408,5.1519,5.1608,5.1648,5.1736,5.1794,5.1787,5.1817,5.1812,5.182,5.1644,5.1613,5.1821,5.1821,5.1821,5.1821,5.1821,5.1821,5.0933,5.1057,5.1069,5.1216,5.1252,5.1354,5.1395,5.1448,5.1494,5.1618,5.1691,5.1717,5.1768,5.1859,5.1939,5.1948,5.1981,5.2016,5.2021,5.1855,5.1833,5.1812,5.1782,5.2023,5.2023,5.219,5.2191,5.2193]},{"header":{"parameterUnit":"m.s-1","parameterCategory":1,"la1":30.2991,"la2":30.254,"lo1":-89.0895,"lo2":-89.0444,"dy":0.0017,"dx":0.0017,"nx":28,"ny":28,"refTime":"2023-08-04T21:00:00:Z","depth":0,"parameterNumber":3,"parameterNumberName":"V-component_of_WINDS"},"data":[0,0,0,0,0,0,0,0,0,0,0,0,0,0,0,0,0,0,0,0,0,0,0,0,0,0,0,0,0,0,0,0,0,0,0,0,0,0,0,0,0,0,0,0,0,0,0,0,0,0,0,0,0,0,0,0,0,0,-0.1424,-0.1425,0,-0.1457,-0.1457,-0.1457,-0.1499,-0.1499,-0.15,-0.15,-0.1533,-0.1533,-0.1533,0,0,0,0,0,0,0,0,0,0,0,0,0,-0.1398,-0.1398,-0.1424,-0.1425,-0.1425,-0.1457,-0.1457,-0.1457,-0.1498,-0.1499,-0.15,-0.1501,-0.1532,-0.1533,-0.1533,0,0,0,0,0,0,0,0,0,0,0,0,0,-0.1418,-0.1398,-0.1424,-0.1449,-0.1452,-0.1456,-0.1457,-0.1458,-0.1498,-0.1499,-0.15,-0.1501,-0.1532,-0.1533,-0.1533,-0.1515,0,0,-0.1534,-0.1534,0,0,0,0,0,0,0,0,-0.1416,-0.1419,-0.1445,-0.1448,-0.1451,-0.1475,-0.1459,-0.1477,-0.1498,-0.1481,-0.1501,-0.1502,-0.1512,-0.1514,-0.1518,-0.1517,-0.1518,-0.1534,-0.1534,-0.1535,-0.1535,0,0,0,0,0,0,0,-0.1415,-0.1417,-0.1437,-0.1446,-0.1449,-0.1459,-0.1463,-0.1463,-0.149,-0.1482,-0.1485,-0.1489,-0.1514,-0.1518,-0.1519,-0.1519,-0.1534,-0.1534,-0.1535,-0.1535,-0.1504,-0.1503,0,0,0,0,0,0,-0.141,-0.1416,-0.1436,-0.1438,-0.1436,-0.1459,-0.1463,-0.1466,-0.1491,-0.1495,-0.1488,-0.149,-0.1517,-0.1519,-0.1521,-0.1501,-0.1534,-0.1535,-0.1535,-0.1505,-0.1504,-0.1503,0,0,0,0,0,0,-0.1409,-0.1411,-0.1435,-0.1428,-0.1432,-0.1458,-0.1461,-0.1466,-0.147,-0.1495,-0.15,-0.1487,-0.1518,-0.152,-0.1516,-0.1503,-0.1535,-0.1535,-0.1507,-0.1505,-0.1504,-0.1462,0,0,0,0,0,0,-0.1408,-0.1411,-0.1404,-0.1427,-0.1432,-0.143,-0.146,-0.1466,-0.147,-0.1474,-0.1495,-0.1499,-0.1519,-0.1516,-0.1517,-0.1504,-0.1536,-0.1508,-0.1506,-0.1504,-0.1465,-0.1459,-0.1455,0,0,0,0,0,-0.1407,-0.1391,-0.1404,-0.1406,-0.1424,-0.1429,-0.1431,-0.1454,-0.1469,-0.1463,-0.1479,-0.1499,-0.1505,-0.1515,-0.1516,-0.1504,-0.1509,-0.1506,-0.1504,-0.1467,-0.146,-0.1455,0,0,0,0,0,0,-0.1365,-0.1394,-0.1409,-0.14,-0.1412,-0.1436,-0.1428,-0.1446,-0.1454,-0.1457,-0.1485,-0.1489,-0.1482,-0.1493,-0.1504,-0.1488,-0.151,-0.1508,-0.1481,-0.1475,-0.147,-0.1467,-0.1536,0,0,0,0,0,-0.1355,-0.1356,-0.1382,-0.1371,-0.1377,-0.1401,-0.1404,-0.1421,-0.1434,-0.1439,-0.1455,-0.1467,-0.1472,-0.1474,-0.148,-0.1467,-0.1472,-0.1459,-0.1454,-0.145,-0.1447,-0.1441,-0.1436,-0.1496,-0.1496,-0.1496,0,0,-0.1333,-0.1349,-0.1349,-0.1363,-0.1374,-0.1375,-0.1405,-0.1405,-0.1406,-0.1439,-0.1436,-0.1449,-0.1464,-0.1456,-0.1453,-0.1464,-0.1432,-0.1447,-0.1443,-0.1443,-0.1439,-0.1433,-0.1428,-0.1494,-0.1494,-0.1495,0,0,-0.1294,-0.1307,-0.1299,-0.131,-0.1327,-0.1344,-0.1342,-0.1364,-0.1373,-0.1372,-0.1397,-0.1398,-0.1406,-0.1416,-0.1421,-0.1388,-0.1406,-0.1389,-0.1362,-0.1356,-0.1351,-0.1347,-0.1334,-0.133,-0.1387,-0.1386,-0.1386,0,-0.1265,-0.1267,-0.1293,-0.1291,-0.1297,-0.1328,-0.1321,-0.133,-0.1348,-0.1351,-0.1364,-0.1374,-0.1387,-0.1381,-0.1373,-0.1377,-0.1376,-0.1386,-0.135,-0.1346,-0.1343,-0.1331,-0.1326,-0.1384,-0.1384,-0.1385,-0.1385,0,-0.1231,-0.1232,-0.1224,-0.1241,-0.1246,-0.1241,-0.1266,-0.1268,-0.1285,-0.13,-0.1298,-0.1314,-0.1324,-0.1324,-0.134,-0.1321,-0.1328,-0.1345,-0.1367,-0.1334,-0.1324,-0.1319,-0.1381,-0.1382,-0.1382,-0.1383,0,0,-0.1164,-0.1196,-0.1193,-0.1201,-0.1222,-0.1224,-0.1221,-0.1231,-0.1232,-0.1243,-0.1241,-0.1247,-0.1264,-0.127,-0.1288,-0.1283,-0.1255,-0.1301,-0.1302,-0.1291,-0.1234,-0.122,-0.1214,-0.1268,-0.1267,-0.1266,-0.1233,0,-0.1128,-0.1125,-0.1149,-0.1139,-0.1141,-0.1171,-0.1169,-0.1181,-0.1196,-0.12,-0.1216,-0.122,-0.1241,-0.1246,-0.1242,-0.1259,-0.1243,-0.1262,-0.1265,-0.1265,-0.1259,-0.1209,-0.1194,-0.1161,-0.1229,-0.1228,-0.1228,0,-0.1086,-0.1095,-0.1086,-0.1108,-0.111,-0.1107,-0.1118,-0.1121,-0.1137,-0.1148,-0.1156,-0.1177,-0.1176,-0.1198,-0.1196,-0.1208,-0.1212,-0.122,-0.1219,-0.122,-0.1243,-0.1207,-0.1152,-0.1146,-0.1221,-0.1222,-0.1222,0,-0.1037,-0.1048,-0.1044,-0.105,-0.1076,-0.1074,-0.1084,-0.1101,-0.1105,-0.1115,-0.1119,-0.1128,-0.1133,-0.114,-0.1163,-0.1177,-0.1159,-0.1183,-0.1167,-0.1167,-0.1161,-0.1161,-0.1104,-0.1165,-0.1165,-0.1165,-0.1165,0,-0.0994,-0.0987,-0.1023,-0.102,-0.1013,-0.104,-0.1033,-0.1046,-0.1061,-0.1061,-0.1089,-0.1089,-0.1119,-0.1122,-0.114,-0.1136,-0.1139,-0.1147,-0.1152,-0.1144,-0.1143,-0.1146,-0.1148,-0.1164,-0.1164,-0.1164,-0.1164,0,-0.0938,-0.0962,-0.0959,-0.0985,-0.0991,-0.0984,-0.1006,-0.1005,-0.1022,-0.1022,-0.1024,-0.105,-0.1056,-0.108,-0.109,-0.1103,-0.1092,-0.1102,-0.1087,-0.1089,-0.1072,-0.1073,-0.1015,-0.1008,-0.1074,-0.1073,-0.1073,0,-0.0909,-0.0904,-0.0929,-0.0932,-0.0941,-0.0945,-0.095,-0.0977,-0.0981,-0.0999,-0.0995,-0.1003,-0.1011,-0.1018,-0.1038,-0.1047,-0.1056,-0.1035,-0.1058,-0.105,-0.1055,-0.1055,-0.1054,-0.103,-0.1029,-0.1028,-0.1028,0,-0.0853,-0.0865,-0.0872,-0.0882,-0.0887,-0.0897,-0.0908,-0.0909,-0.0939,-0.0943,-0.0949,-0.0954,-0.0966,-0.0973,-0.0985,-0.0997,-0.1017,-0.1021,-0.1018,-0.1009,-0.1,-0.1004,-0.1072,-0.1022,-0.1022,-0.1023,-0.1023,-0.1023,-0.0809,-0.0806,-0.0824,-0.083,-0.0841,-0.0851,-0.0851,-0.0869,-0.0874,-0.0886,-0.0902,-0.0906,-0.0922,-0.0941,-0.0951,-0.0954,-0.0966,-0.0961,-0.096,-0.0958,-0.0954,-0.1001,-0.0957,-0.0957,-0.0957,-0.0957,-0.0957,0,-0.0754,-0.0767,-0.0773,-0.0788,-0.0793,-0.0813,-0.0826,-0.0829,-0.0832,-0.0846,-0.0853,-0.086,-0.0868,-0.0889,-0.0898,-0.0897,-0.0907,-0.0898,-0.0898,-0.09,-0.0943,-0.0945,-0.089,-0.089,-0.089,-0.089,-0.089,-0.0891,-0.0726,-0.0723,-0.0737,-0.0739,-0.0753,-0.0757,-0.0763,-0.0772,-0.0783,-0.079,-0.0796,-0.0811,-0.0827,-0.0839,-0.0846,-0.0852,-0.0854,-0.0843,-0.0852,-0.0891,-0.0897,-0.0903,-0.0905,-0.0843,-0.0843,-0.0809,-0.0808,-0.0808]}]]